Regional Weather Roundup
Issued by NWS Midland/Odessa, TX

Skip options and go directly to product.
Home | Oldest Version | Previous Version | Current Version | All | Text Only | Save Text | Print | Product List | Glossary On

Skip product version selection by date and time.   
284
ASUS44 KMAF 201601
RWRMAF
MIDLAND AREA WEATHER ROUNDUP
NATIONAL WEATHER SERVICE MIDLAND TX
1000 AM CST FRI JAN 20 2017

...IN SOUTHWEST TEXAS AND SOUTHEAST NEW MEXICO...

CITY           SKY/WX    TMP DP  RH WIND       PRES   REMARKS
ALPINE         MOSUNNY   50  25  37 SW21      29.91S
ANDREWS        FAIR      50  30  46 W10G17    29.77R
ARTESIA        SUNNY     52  30  43 SW16      29.75S
BIG SPRING     MOSUNNY   54  34  46 SW10      29.78S
CARLSBAD       SUNNY     57  27  31 W14G24    29.74R
DRYDEN           N/A     61  30  31 W6        29.81S
FORT STOCKTON  SUNNY     59  27  29 SW13      29.80R
GUAD PASS      NOT AVBL
HOBBS          SUNNY     52  28  40 W20       29.76R
MARFA          SUNNY     42  29  59 CALM      29.91R
MIDLAND AIRPK  SUNNY     56  31  37 SW13G18   29.77R
MIDLAND INTL   MOSUNNY   56  30  37 SW15      29.77R
ODESSA         MOSUNNY   57  29  34 SW14      29.78R
PECOS          MOSUNNY   53  31  43 CALM      29.79R
PRESIDIO       FAIR      52  28  40 CALM      29.88R
SEMINOLE       MOSUNNY   51  31  46 W17       29.76R
SNYDER         SUNNY     54  35  48 SW16G22   29.74R
WINK           PTSUNNY   50  32  50 S3        29.78R
$$
...OTHER STATIONS IN TEXAS...

CITY           SKY/WX    TMP DP  RH WIND       PRES   REMARKS
ABILENE        SUNNY     62  33  33 W16G25    29.72R
AMARILLO       SUNNY     50  31  48 W28G39    29.57R
AUSTIN         CLOUDY    57  56  96 S10       29.82R FOG
BROWNSVILLE    CLOUDY    71  70  96 E8        29.78R FOG
CORPUS CHRISTI CLOUDY    65  65 100 NE12      29.79R FOG
DALLAS FTW     CLOUDY    61  39  44 SW14      29.68R
DEL RIO        MOSUNNY   52  48  86 CALM      29.82R
EL PASO        MOSUNNY   50  25  37 SW5       29.86R
HOUSTON INT    CLOUDY    62  59  90 W6        29.85R FOG
LUBBOCK        MOSUNNY   51  34  52 W21G29    29.66R
SAN ANGELO     SUNNY     59  34  39 SW17      29.79R
SAN ANTONIO    FOG       56  55  97 SE3       29.84R VSB 1
WACO           MOSUNNY   61  45  55 SW12      29.78R
WICHITA FALLS  NOT AVBL
$$
...OTHER LOCATIONS IN NEW MEXICO...

CITY           SKY/WX    TMP DP  RH WIND       PRES   REMARKS
ALAMAGORDO     CLOUDY    46  30  53 S12       29.85R
ALBUQUERQUE    CLOUDY    36  30  79 W7        29.75R WCI  30
CANNON AFB     SUNNY     46  37  70 W20G28    29.66R WCI  38
CLOVIS         SUNNY     46  32  57 W23G29    29.65S WCI  38
HOLLOMAN AFB   NOT AVBL
ROSWELL        SUNNY     54  27  35 SW17G24   29.72R
RUIDOSO        LGT RAIN  34  27  75 SW18G29   29.78R WCI  23
SANTA FE       MOSUNNY   33  24  69 W17G24    29.69R WCI  22
TRUTH OR CONSE MOSUNNY   44  26  49 SW12      29.78R WCI  38
TUCUMCARI      PTSUNNY   48  31  51 W24G39    29.61F
$$

  • National Weather Service
  • Southern Region Headquarters
  • 819 Taylor Street, Room 10A06
  • Fort Worth, TX 76102
  • Page Author: NWS Fort Worth
  • Web Master: SR-SRH.Webmaster@noaa.gov
  •  
  • Page last modified: 30-Sep-2016 6:36 PM UTC
USA.gov is the U.S. government's official web portal to all federal, state and local government web resources and services.